Orbital Elements at Epoch 2459200.5 (2020-Dec-17.0) TDB
Reference: JPL 25 (heliocentric ecliptic J2000)
Element | Value | Uncertainty (1-sigma) | Units |
e | .1503280031985333 | 3.9094e-08 | |
a | 2.545584938873462 | 1.2141e-08 | au |
q | 2.162912238040354 | 1.019e-07 | au |
i | 5.769908386897751 | 4.619e-06 | deg |
node | 96.02162974003635 | 5.0714e-05 | deg |
peri | 72.03820875854807 | 5.4329e-05 | deg |
M | 356.1648197685802 | 1.9974e-05 | deg |
tp | 2459216.303857073875 (2021-Jan-01.80385707) | 8.2326e-05 | TDB |
period | 1483.473579672893 4.06 | 1.0613e-05 2.906e-08 | d yr |
n | .2426736848790932 | 1.7361e-09 | deg/d |
Q | 2.92825763970657 | 1.3966e-08 | au |
|
| | Orbit Determination Parameters
Additional Information
|